{"data":{"norad_id":55828,"epoch":"2026-09-19T22:42:01.264608Z","epoch_age_seconds":69753,"freshness":"FRESH","line1":"1 55828U 23029AJ  26262.94584797  .00000049  00000+0  88973-4 0  9996","line2":"2 55828  87.9141 255.5366 0002380  96.9699 263.1705 13.20772732173653","mean_motion":13.20772732,"eccentricity":0.000238,"inclination_deg":87.9141,"raan_deg":255.5366,"arg_perigee_deg":96.9699,"mean_anomaly_deg":263.1705,"bstar":8.8973e-5,"rev_number":17365,"period_min":109.02708430537,"perigee_km":1179.9706078291,"apogee_km":1183.5691234972,"semimajor_km":7559.9068656632,"source":"CELESTRAK","updated_at":"2026-09-20T09:00:44.784159Z"}}